This is the latest recevied weather packets stored in our database for station/object KG5EO. If no packets are shown the sender has not sent any weather packets the latest 10 day(s).
| Time | Temp. | Humidity | Pressure | Rain* | Wind** | Luminosity | Snow |
|---|---|---|---|---|---|---|---|
| 1777752360 | 32.78° C | 18% | 41 hPa | 0 mm | - | - | - |
| 1777752060 | 32.78° C | 19% | 41 hPa | 0 mm | - | - | - |
| 1777751759 | 32.78° C | 19% | 41 hPa | 0 mm | - | - | - |
| 1777751461 | 32.78° C | 17% | 41 hPa | 0 mm | - | - | - |
| 1777751160 | 32.78° C | 16% | 41 hPa | 0 mm | - | - | - |
| 1777750859 | 32.78° C | 19% | 41 hPa | 0 mm | - | - | - |
| 1777750559 | 32.78° C | 19% | 41 hPa | 0 mm | - | - | - |
| 1777750258 | 32.22° C | 19% | 41 hPa | 0 mm | - | - | - |
| 1777749958 | 32.22° C | 19% | 41 hPa | 0 mm | - | - | - |
| 1777749658 | 32.22° C | 20% | 41 hPa | 0 mm | - | - | - |
| 1777749358 | 32.22° C | 20% | 41 hPa | 0 mm | - | - | - |
| 1777749058 | 32.22° C | 20% | 41 hPa | 0 mm | - | - | - |
| 1777748759 | 31.67° C | 20% | 41 hPa | 0 mm | - | - | - |
| 1777748473 | 31.67° C | 19% | 41 hPa | 0 mm | - | - | - |
| 1777748158 | 32.22° C | 24% | 41 hPa | 0 mm | - | - | - |
| 1777747857 | 31.67° C | 22% | 41 hPa | 0 mm | - | - | - |
| 1777747557 | 31.11° C | 21% | 41 hPa | 0 mm | - | - | - |
| 1777747258 | 31.11° C | 22% | 41 hPa | 0 mm | - | - | - |
| 1777746957 | 31.11° C | 21% | 41 hPa | 0 mm | - | - | - |
| 1777746657 | 31.11° C | 23% | 41 hPa | 0 mm | - | - | - |
| 1777746359 | 30.56° C | 23% | 41 hPa | 0 mm | - | - | - |
| 1777746057 | 31.11° C | 22% | 41 hPa | 0 mm | - | - | - |
| 1777745757 | 30.56° C | 23% | 41 hPa | 0 mm | - | - | - |
| 1777745458 | 30.56° C | 23% | 41 hPa | 0 mm | - | - | - |
| 1777745156 | 30.56° C | 23% | 41 hPa | 0 mm | - | - | - |
* Rain latest hour (hover to see other rain measurements)
** Current wind speed in m/s (hover to see current wind gust speed)